Regional Weather Roundup
Issued by NWS

Home | Current Version | Previous Version | Text Only | Print | Product List | Glossary Off
Versions: 1 2 3 4 5 6 7 8 9 10 11 12 13 14 15 16 17 18 19 20 21 22 23 24 25 26 27 28 29 30 31 32 33 34 35 36 37 38 39 40 41 42 43 44 45 46 47 48 49 50

000
ASUS43 KFSD 221710
RWRSD

WEATHER ROUNDUP FOR SOUTH DAKOTA
NATIONAL WEATHER SERVICE SIOUX FALLS SD
1200 PM CDT TUE AUG 22 2017

NOTE: "FAIR" INDICATES FEW OR NO CLOUDS BELOW 12,000 FEET WITH NO
SIGNIFICANT WEATHER AND/OR OBSTRUCTIONS TO VISIBILITY.


SDZ001>005-009-010-012>017-221800-
NORTHWEST AND NORTH CENTRAL SOUTH DAKOTA

CITY           SKY/WX    TMP DP  RH WIND       PRES   REMARKS
BUFFALO          N/A     76  41  28 VRB7      30.16F
FAITH            N/A     73  42  32 S8        30.22F
MOBRIDGE       SUNNY     71  48  43 NW7       30.20
$$

SDZ012>016-024>037-041>051-057-063-072>074-221800-
SOUTHWEST AND SOUTH CENTRAL SOUTH DAKOTA

CITY           SKY/WX    TMP DP  RH WIND       PRES   REMARKS
RAPID CTY ARPT SUNNY     76  45  33 S15       30.23F
PIERRE         SUNNY     70  45  40 SW3       30.22S
CUSTER         SUNNY     67  39  35 SW8       30.34S
ELLSWORTH AFB  SUNNY     75  45  33 S14       30.22F
PHILIP         SUNNY     77  42  28 SW5       30.23F
SPEARFISH      FAIR      73  41  31 NE8       30.25F
WINNER         FAIR      73  48  41 W3        30.25S
$$

SDZ004>011-016>023-039-040-221800-
NORTHEAST SOUTH DAKOTA

CITY           SKY/WX    TMP DP  RH WIND       PRES   REMARKS
ABERDEEN       SUNNY     74  42  31 NW16G23   30.18S
WATERTOWN      SUNNY     69  44  40 NW18      30.17R
BROOKINGS      SUNNY     68  48  48 NW12      30.19R
SISSETON         N/A     72  51  47 NW17      30.13R
$$

SDZ017-020-022-023-036>040-048>070-221800-
SOUTHEAST SOUTH DAKOTA

CITY           SKY/WX    TMP DP  RH WIND       PRES   REMARKS
SIOUX FALLS    MOSUNNY   72  50  45 N13       30.19R
HURON          SUNNY     71  50  47 N8        30.20S
CHAMBERLAIN    SUNNY     72  53  52 SW6       30.24F
MITCHELL       SUNNY     73  48  41 NW9       30.21S
YANKTON        SUNNY     71  49  45 W9        30.22S
$$

ABBREVIATIONS USED IN REMARKS
   TC - TEMPERATURE IN CELSIUS
  WCI - WIND CHILL INDEX
   HX - HEAT INDEX
  VSB - VISIBILITY




USA.gov is the U.S. government's official web portal to all federal, state and local government web resources and services.